Regional Weather Roundup
Issued by NWS

Home | Current Version | Previous Version | Text Only | Print | Product List | Glossary On
Versions: 1 2 3 4 5 6 7 8 9 10 11 12 13 14 15 16 17 18 19 20 21 22 23 24 25 26 27 28 29 30 31 32 33 34 35 36 37 38 39 40 41 42 43 44 45 46 47 48 49 50
000
ASUS43 KOAX 250002
RWRNE

WEATHER ROUNDUP FOR NEBRASKA
NATIONAL WEATHER SERVICE OMAHA NE
700 PM CDT FRI OCT 24 2014

NOTES: SATELLITE DATA IS BEING USED TO AUGMENT CLOUD COVER ABOVE
       12000 FEET.
       "FAIR" INDICATES FEW OR NO CLOUDS BELOW 12,000 FEET WITH NO
       SIGNIFICANT WEATHER AND/OR OBSTRUCTIONS TO VISIBILITY.

  * THESE STATIONS DO NOT REPORT WEATHER SUCH AS RAIN...SNOW OR FOG.

NEZ001>004-019>022-054>056-250100-
NEBRASKA PANHANDLE

CITY           SKY/WX    TMP DP  RH WIND       PRES   REMARKS
SCOTTSBLUFF    CLEAR     70  32  24 NW7       30.03S
6HR MIN TEMP:  70; 6HR MAX TEMP:  83;

ALLIANCE       CLEAR     66  37  34 E7        30.03R
6HR MIN TEMP:  66; 6HR MAX TEMP:  80;

CHADRON        CLEAR     70  38  31 NE5       30.01R
6HR MIN TEMP:  68; 6HR MAX TEMP:  78;

KIMBALL        CLEAR     67  30  24 E3        30.10S
SIDNEY         CLEAR     67  34  29 NE5       30.09R
6HR MIN TEMP:  67; 6HR MAX TEMP:  83;

$$

NEZ057>060-069>072-079>082-250100-
SOUTHWEST NEBRASKA

CITY           SKY/WX    TMP DP  RH WIND       PRES   REMARKS
NORTH PLATTE   CLEAR     66  42  41 CALM      30.00R
6HR MIN TEMP:  66; 6HR MAX TEMP:  84;

IMPERIAL       CLEAR     72  37  28 SE5       30.04R
6HR MIN TEMP:  72; 6HR MAX TEMP:  85;

LEXINGTON      CLEAR     72  37  28 NW3       29.98S
MCCOOK         CLEAR     72  33  24 NW8       30.01R
6HR MIN TEMP:  72; 6HR MAX TEMP:  89;

OGALLALA       CLEAR     71  36  27 CALM      30.04R
$$

NEZ005>010-023>029-035>040-094-250100-
NORTH CENTRAL NEBRASKA

CITY           SKY/WX    TMP DP  RH WIND       PRES   REMARKS
VALENTINE      CLEAR     70  34  26 N5        29.99R
6HR MIN TEMP:  70; 6HR MAX TEMP:  81;

AINSWORTH      HAZE      64  39  38 CALM      29.99S VSB 3/4
BROKEN BOW     CLEAR     64  40  41 N5        29.99R
6HR MIN TEMP:  64; 6HR MAX TEMP:  84;

O`NEILL        PTCLDY    67  40  36 CALM      29.99R HAZE
ORD            CLEAR     59  43  55 CALM      29.97R
6HR MIN TEMP:  58; 6HR MAX TEMP:  79;

THEDFORD       CLEAR     71  35  27 CALM      30.01S
$$

NEZ041-046>049-061>064-073>077-083>087-250100-
SOUTH CENTRAL NEBRASKA

CITY           SKY/WX    TMP DP  RH WIND       PRES   REMARKS
GRAND ISLAND   CLEAR     64  48  56 NE5       29.97R
6HR MIN TEMP:  64; 6HR MAX TEMP:  80;

AURORA         CLEAR     66  48  53 N3        29.97R
HASTINGS       CLEAR     66  47  50 NE6       29.97R
6HR MIN TEMP:  66; 6HR MAX TEMP:  80;

HEBRON         CLEAR     68  50  52 CALM      29.95R
HOLDREGE       CLEAR     75  31  20 CALM      29.98R
KEARNEY *      CLEAR     64  46  52 NE6       29.99R
YORK           CLEAR     66  52  59 N3        29.97R HAZE
$$

NEZ011>018-030>034-042>045-250100-
NORTHEAST NEBRASKA

CITY           SKY/WX    TMP DP  RH WIND       PRES   REMARKS
NORFOLK        PTCLDY    63  48  58 SW3       29.96R
6HR MIN TEMP:  63; 6HR MAX TEMP:  74;

ALBION         PTCLDY    63  42  47 CALM      29.98R
BLAIR          CLEAR     70  54  57 CALM      29.94R
COLUMBUS *     CLEAR     63  48  59 CALM      29.97R
FREMONT        PTCLDY    67  52  59 CALM      29.95R
TEKAMAH        CLEAR     66  51  58 W3        29.93R
6HR MIN TEMP:  66; 6HR MAX TEMP:  78;

WAYNE          PTCLDY    58  46  63 CALM      29.96R
$$

NEZ050>053-065>068-078-088>093-250100-
SOUTHEAST NEBRASKA

CITY           SKY/WX    TMP DP  RH WIND       PRES   REMARKS
LINCOLN        PTCLDY    63  54  72 N5        29.95R
6HR MIN TEMP:  63; 6HR MAX TEMP:  77;

OMAHA EPPLEY   MOCLDY    69  56  62 CALM      29.93R
6HR MIN TEMP:  68; 6HR MAX TEMP:  76;

BEATRICE       CLEAR     68  57  67 CALM      29.94R
FALLS CITY     PTCLDY    73  61  65 W6        29.91R
6HR MIN TEMP:  72; 6HR MAX TEMP:  79;

NEBRASKA CITY  PTCLDY    69  56  64 N5        29.94R
PLATTSMOUTH    PTCLDY    67  56  67 CALM      29.94R
$$

NEZ044-045-051>053-067-250100-
OMAHA AREA

CITY           SKY/WX    TMP DP  RH WIND       PRES   REMARKS
OMAHA EPPLEY   MOCLDY    69  56  62 CALM      29.93R
6HR MIN TEMP:  68; 6HR MAX TEMP:  76;

BLAIR          CLEAR     70  54  57 CALM      29.94R
FREMONT        PTCLDY    67  52  59 CALM      29.95R
MILLARD        PTCLDY    65  59  83 CALM      29.93R
OFFUTT AFB     PTCLDY    60  60  99 NE1       29.93R
PLATTSMOUTH    PTCLDY    67  56  67 CALM      29.94R
WAHOO          FAIR      66  48  53 N5        29.95R
$$



USA.gov is the U.S. government's official web portal to all federal, state and local government web resources and services.